User: anonymous   Login
Location: Sunrise Point
(46.9200°N, 121.5900°W)
Time: 17:21:49
(UTC-08:00)
Language:

Cosmos 2058 - Orbit

View from above orbital plane
View from above orbital plane
View from above satellite
View from above satellite

Ground track
Ground track

The orbit data is extracted from the following two-line orbital elements,

1 20465U 90010A   15027.51768701  .00002138  00000-0  18876-3 0  3426
2 20465 082.4916 005.1827 0015618 355.3760 004.7315 14.95839375354930
Epoch (UTC): 27 January 2015 12:25:28
Eccentricity: 0.0015618
inclination: 82.4916°
perigee height: 569 km
apogee height: 590 km
right ascension of ascending node: 5.1827°
argument of perigee: 355.3760°
revolutions per day: 14.95839375
mean anomaly at epoch: 4.7315°
orbit number at epoch: 35493

The dashed part of the orbit path shows where the satellite is in the earth's shadow,  

DLR